When you browse on this site, cookies collect data to enhance your experience and personalize the content and advertising you see.
Visit our Privacy Policy to learn more. By continuing to use the site, you agree to this use of cookies and data.
  • en France
  • Liste des pays
  • À 7 jours
  • Température de l'eau
  • Carte satellitaire
  • Carte météo
  • Widgets météo
  • user-avatar
    Se connecter

    Météo par heure à Dhâkâ

    Ce jour, 17 Novembre, Samedi

    Heure Température Précipitation Vent Pression Humidité
    00:00 +25°C° 0 mm 1 m/s 758 mmHg 60%
    01:00 +25°C° 0 mm 1 m/s 757 mmHg 61%
    02:00 +25°C° 0 mm 1 m/s 757 mmHg 63%
    03:00 +24°C° 0 mm 1 m/s 757 mmHg 64%
    04:00 +24°C° 0 mm 1 m/s 757 mmHg 67%
    05:00 +24°C° 0 mm 1 m/s 758 mmHg 70%
    06:00 +24°C° 0 mm 2 m/s 757 mmHg 73%
    07:00 +25°C° 0 mm 2 m/s 758 mmHg 66%
    08:00 +27°C° 0 mm 3 m/s 758 mmHg 59%
    09:00 +29°C° 0 mm 3 m/s 758 mmHg 51%
    10:00 +30°C° 0 mm 3 m/s 758 mmHg 46%
    11:00 +33°C° 0 mm 3 m/s 757 mmHg 41%
    12:00 +33°C° 0 mm 3 m/s 757 mmHg 37%
    13:00 +34°C° 0 mm 3 m/s 757 mmHg 37%
    14:00 +34°C° 0 mm 3 m/s 756 mmHg 36%
    15:00 +34°C° 0 mm 3 m/s 756 mmHg 36%
    16:00 +31°C° 0 mm 3 m/s 756 mmHg 40%
    17:00 +30°C° 0 mm 2 m/s 756 mmHg 44%
    18:00 +28°C° 0 mm 2 m/s 756 mmHg 48%
    19:00 +27°C° 0 mm 2 m/s 756 mmHg 51%
    20:00 +27°C° 0 mm 2 m/s 757 mmHg 54%
    21:00 +26°C° 0 mm 2 m/s 757 mmHg 57%
    22:00 +26°C° 0 mm 2 m/s 757 mmHg 61%
    23:00 +25°C° 0 mm 2 m/s 757 mmHg 64%

    Demain, 18 Novembre, Dimanche

    Heure Température Précipitation Vent Pression Humidité
    00:00 +24°C° 0 mm 2 m/s 758 mmHg 67%
    01:00 +24°C° 0 mm 2 m/s 758 mmHg 70%
    02:00 +24°C° 0 mm 2 m/s 758 mmHg 73%
    03:00 +23°C° 0 mm 2 m/s 758 mmHg 76%
    04:00 +23°C° 0 mm 2 m/s 758 mmHg 77%
    05:00 +21°C° 0 mm 2 m/s 758 mmHg 78%
    06:00 +21°C° 0 mm 2 m/s 758 mmHg 79%
    07:00 +24°C° 0 mm 2 m/s 759 mmHg 73%
    08:00 +25°C° 0 mm 2 m/s 760 mmHg 67%
    09:00 +27°C° 0 mm 3 m/s 760 mmHg 61%
    10:00 +28°C° 0 mm 2 m/s 760 mmHg 55%
    11:00 +30°C° 0 mm 2 m/s 760 mmHg 49%
    12:00 +31°C° 0 mm 2 m/s 759 mmHg 43%
    13:00 +31°C° 0 mm 2 m/s 758 mmHg 40%
    14:00 +32°C° 0 mm 2 m/s 758 mmHg 37%
    15:00 +32°C° 0 mm 2 m/s 757 mmHg 34%
    16:00 +30°C° 0 mm 2 m/s 757 mmHg 37%
    17:00 +29°C° 0 mm 2 m/s 757 mmHg 41%
    18:00 +28°C° 0 mm 2 m/s 757 mmHg 44%
    19:00 +27°C° 0 mm 2 m/s 758 mmHg 46%
    20:00 +26°C° 0 mm 2 m/s 758 mmHg 48%
    21:00 +25°C° 0 mm 2 m/s 759 mmHg 49%
    22:00 +25°C° 0 mm 2 m/s 759 mmHg 50%
    23:00 +24°C° 0 mm 2 m/s 759 mmHg 51%

    Après-demain, 19 Novembre, Lundi

    Heure Température Précipitation Vent Pression Humidité
    00:00 +24°C° 0 mm 2 m/s 759 mmHg 52%
    01:00 +23°C° 0 mm 2 m/s 759 mmHg 54%
    02:00 +23°C° 0 mm 2 m/s 759 mmHg 55%
    03:00 +21°C° 0 mm 2 m/s 759 mmHg 57%
    04:00 +21°C° 0 mm 2 m/s 759 mmHg 58%
    05:00 +21°C° 0 mm 2 m/s 759 mmHg 59%
    06:00 +20°C° 0 mm 2 m/s 759 mmHg 61%
    07:00 +23°C° 0 mm 2 m/s 760 mmHg 57%
    08:00 +24°C° 0 mm 2 m/s 761 mmHg 53%
    09:00 +26°C° 0 mm 2 m/s 761 mmHg 49%
    10:00 +27°C° 0 mm 2 m/s 761 mmHg 44%
    11:00 +29°C° 0 mm 2 m/s 761 mmHg 40%
    12:00 +30°C° 0 mm 1 m/s 760 mmHg 36%
    13:00 +31°C° 0 mm 2 m/s 760 mmHg 34%
    14:00 +31°C° 0 mm 2 m/s 759 mmHg 32%
    15:00 +31°C° 0 mm 2 m/s 758 mmHg 31%
    16:00 +30°C° 0 mm 2 m/s 758 mmHg 34%
    17:00 +28°C° 0 mm 2 m/s 758 mmHg 37%
    18:00 +27°C° 0 mm 2 m/s 758 mmHg 40%
    19:00 +26°C° 0 mm 2 m/s 759 mmHg 42%
    20:00 +25°C° 0 mm 2 m/s 759 mmHg 44%
    21:00 +25°C° 0 mm 2 m/s 760 mmHg 46%
    22:00 +24°C° 0 mm 2 m/s 760 mmHg 48%
    23:00 +24°C° 0 mm 2 m/s 760 mmHg 50%

    20 Novembre, Mardi

    Heure Température Précipitation Vent Pression Humidité
    00:00 +23°C° 0 mm 1 m/s 759 mmHg 51%
    01:00 +23°C° 0 mm 2 m/s 759 mmHg 53%
    02:00 +21°C° 0 mm 2 m/s 759 mmHg 54%
    03:00 +21°C° 0 mm 2 m/s 759 mmHg 56%
    04:00 +20°C° 0 mm 2 m/s 759 mmHg 57%
    05:00 +20°C° 0 mm 2 m/s 759 mmHg 59%
    06:00 +20°C° 0 mm 2 m/s 759 mmHg 60%
    07:00 +21°C° 0 mm 2 m/s 760 mmHg 56%
    08:00 +24°C° 0 mm 2 m/s 761 mmHg 52%
    09:00 +26°C° 0 mm 2 m/s 761 mmHg 48%
    10:00 +27°C° 0 mm 2 m/s 761 mmHg 44%
    11:00 +28°C° 0 mm 1 m/s 760 mmHg 41%
    12:00 +30°C° 0 mm 1 m/s 760 mmHg 37%
    13:00 +30°C° 0 mm 1 m/s 759 mmHg 35%
    14:00 +31°C° 0 mm 2 m/s 758 mmHg 34%
    15:00 +31°C° 0 mm 2 m/s 758 mmHg 33%
    16:00 +29°C° 0 mm 2 m/s 758 mmHg 36%
    17:00 +28°C° 0 mm 1 m/s 758 mmHg 39%
    18:00 +27°C° 0 mm 1 m/s 758 mmHg 42%
    19:00 +26°C° 0 mm 1 m/s 758 mmHg 44%
    20:00 +25°C° 0 mm 1 m/s 759 mmHg 46%
    21:00 +25°C° 0 mm 2 m/s 759 mmHg 48%
    22:00 +24°C° 0 mm 2 m/s 759 mmHg 50%
    23:00 +24°C° 0 mm 2 m/s 759 mmHg 52%

    21 Novembre, Mercredi

    Heure Température Précipitation Vent Pression Humidité
    00:00 +23°C° 0 mm 2 m/s 759 mmHg 53%
    01:00 +23°C° 0 mm 2 m/s 759 mmHg 55%
    02:00 +21°C° 0 mm 2 m/s 759 mmHg 56%
    03:00 +21°C° 0 mm 2 m/s 759 mmHg 58%
    04:00 +20°C° 0 mm 2 m/s 759 mmHg 59%
    05:00 +20°C° 0 mm 2 m/s 759 mmHg 61%
    06:00 +21°C° 0 mm 1 m/s 760 mmHg 62%
    07:00 +21°C° 0 mm 2 m/s 760 mmHg 58%
    08:00 +24°C° 0 mm 2 m/s 761 mmHg 54%
    09:00 +26°C° 0 mm 2 m/s 762 mmHg 50%
    10:00 +27°C° 0 mm 2 m/s 761 mmHg 44%
    11:00 +29°C° 0 mm 2 m/s 760 mmHg 38%
    12:00 +30°C° 0 mm 2 m/s 760 mmHg 32%
    13:00 +30°C° 0 mm 3 m/s 759 mmHg 31%
    14:00 +30°C° 0 mm 3 m/s 758 mmHg 30%
    15:00 +32°C° 0 mm 4 m/s 758 mmHg 29%
    16:00 +29°C° 0 mm 3 m/s 758 mmHg 34%
    17:00 +27°C° 0 mm 3 m/s 758 mmHg 38%
    18:00 +25°C° 0 mm 3 m/s 758 mmHg 42%
    19:00 +25°C° 0 mm 3 m/s 758 mmHg 45%
    20:00 +24°C° 0 mm 2 m/s 759 mmHg 48%
    21:00 +23°C° 0 mm 2 m/s 760 mmHg 50%
    22:00 +23°C° 0 mm 2 m/s 759 mmHg 53%
    23:00 +21°C° 0 mm 2 m/s 759 mmHg 55%

    22 Novembre, Jeudi

    Heure Température Précipitation Vent Pression Humidité
    00:00 +21°C° 0 mm 2 m/s 759 mmHg 57%
    01:00 +20°C° 0 mm 2 m/s 759 mmHg 59%
    02:00 +21°C° 0 mm 1 m/s 759 mmHg 61%
    03:00 +21°C° 0 mm 1 m/s 758 mmHg 63%
    04:00 +20°C° 0 mm 1 m/s 759 mmHg 65%
    05:00 +20°C° 0 mm 1 m/s 759 mmHg 67%
    06:00 +20°C° 0 mm 1 m/s 759 mmHg 69%
    07:00 +21°C° 0 mm 1 m/s 760 mmHg 64%
    08:00 +23°C° 0 mm 1 m/s 760 mmHg 59%
    09:00 +25°C° 0 mm 2 m/s 761 mmHg 54%
    10:00 +26°C° 0 mm 2 m/s 760 mmHg 49%
    11:00 +27°C° 0 mm 2 m/s 760 mmHg 44%
    12:00 +29°C° 0 mm 2 m/s 759 mmHg 39%
    13:00 +29°C° 0 mm 2 m/s 758 mmHg 38%
    14:00 +29°C° 0 mm 2 m/s 758 mmHg 36%
    15:00 +30°C° 0 mm 2 m/s 757 mmHg 35%
    16:00 +28°C° 0 mm 2 m/s 757 mmHg 39%
    17:00 +27°C° 0 mm 2 m/s 757 mmHg 43%
    18:00 +25°C° 0 mm 1 m/s 757 mmHg 47%
    19:00 +25°C° 0 mm 2 m/s 758 mmHg 49%
    20:00 +24°C° 0 mm 2 m/s 758 mmHg 51%
    21:00 +23°C° 0 mm 2 m/s 759 mmHg 53%
    22:00 +23°C° 0 mm 2 m/s 759 mmHg 55%
    23:00 +21°C° 0 mm 2 m/s 759 mmHg 57%
    Voir plus